Maryland Science Center, MD

3:01 AM EST on December 13, 2017 (GMT -0500)
Maryland Science Center

Weather History for KDMH - March, 2013

Change the Weather History Date:

Wednesday, March 6, 2013

  Actual Average Record
Temperature  
Mean Temperature 41 °F 43 °F  
Max Temperature 45 °F 50 °F 69 °F (2004)
Min Temperature 36 °F 36 °F 14 °F (2015)
Degree Days  
Heating Degree Days 24 22  
Month to date heating degree days 146 135  
Since 1 July heating degree days 2697 3223  
Cooling Degree Days 0 0  
Month to date cooling degree days 0 0  
Year to date cooling degree days 0 0  
Moisture  
Dew Point 32 °F    
Average Humidity 69    
Maximum Humidity 85    
Minimum Humidity 53    
Precipitation  
Precipitation 0.54 in 0.10 in 1.38 in (2004)
Month to date precipitation 0.54 0.56  
Year to date precipitation 6.39 6.08  
Sea Level Pressure  
Sea Level Pressure 29.78 in    
Wind  
Wind Speed - (North)    
Max Wind Speed -    
Max Gust Speed -    
T = Trace of Precipitation, MM = Missing Value Source: NWS Daily Summary

Daily Weather History Graph

Daily Weather History Graph

Search for Another Location

Airport or City:

Trip Planner

Search our weather history database for the weather conditions in past years. The results will help you decide how hot, cold, wet, or windy it might be!

Date:

Astronomy

Mar. 06, 2013 Rise Set
Actual Time 6:31 AM EST 6:04 PM EST
Civil Twilight 6:04 AM EST 6:31 PM EST
Nautical Twilight 5:33 AM EST 7:02 PM EST
Astronomical Twilight 5:02 AM EST 7:33 PM EST
Moon 2:37 AM EST (3/6) 12:45 PM EST (3/6)
Length of Visible Light 12h 26m
Length of Day
11h 33m
Waning Crescent, 30% of the Moon is Illuminated
Mar 6
Waning Crescent
Mar 11
New
Mar 19
First Quarter
Mar 27
Full
Apr 3
Last Quarter

Hourly Weather History & Observations

Time (EST) Temp. Dew Point Humidity Pressure Visibility Wind Dir Wind Speed Gust Speed Precip Events Conditions
12:54 AM 42.1 °F 26.1 °F 53% 29.82 in - North - - N/A   Unknown
1:54 AM 37.9 °F 32.0 °F 79% 29.79 in - North - - 0.04 in   Unknown
2:54 AM 37.0 °F 32.0 °F 82% 29.73 in - North - - 0.07 in   Unknown
3:54 AM 37.0 °F 33.1 °F 86% 29.71 in - North - - 0.06 in   Unknown
4:54 AM 37.0 °F 33.1 °F 86% 29.68 in - North - - 0.05 in   Unknown
5:54 AM 37.9 °F 33.1 °F 83% 29.68 in - North - - 0.03 in   Unknown
6:54 AM 37.9 °F 33.1 °F 83% 29.67 in - North - - 0.04 in   Unknown
7:54 AM 39.0 °F 34.0 °F 82% 29.67 in - North - - 0.05 in   Unknown
8:54 AM 39.9 °F 34.0 °F 79% 29.67 in - North - - 0.01 in   Unknown
9:54 AM 41.0 °F 35.1 °F 79% 29.66 in - North - - 0.02 in   Unknown
10:54 AM 41.0 °F 34.0 °F 76% 29.66 in - North - - 0.06 in   Unknown
11:54 AM 39.9 °F 34.0 °F 79% 29.67 in - North - - 0.05 in   Unknown
12:54 PM 41.0 °F 34.0 °F 76% 29.67 in - North - - 0.02 in   Unknown
1:54 PM 42.1 °F 34.0 °F 73% 29.70 in - North - - N/A   Unknown
2:54 PM 41.0 °F 34.0 °F 76% 29.72 in - North - - N/A   Unknown
3:54 PM 41.0 °F 34.0 °F 76% 29.76 in - North - - 0.02 in   Unknown
4:54 PM 42.1 °F 34.0 °F 73% 29.83 in - North - - 0.02 in   Unknown
5:54 PM 43.0 °F 34.0 °F 71% 29.88 in - North - - N/A   Unknown
6:54 PM 43.0 °F 34.0 °F 71% 29.91 in - North - - N/A   Unknown
7:54 PM 43.0 °F 32.0 °F 65% 29.92 in - North - - N/A   Unknown
8:54 PM 44.1 °F 30.0 °F 58% 29.94 in - North - - N/A   Unknown
9:54 PM 44.1 °F 28.9 °F 55% 29.96 in - North - - N/A   Unknown
10:54 PM 44.1 °F 28.0 °F 53% 29.96 in - North - - N/A   Unknown
11:54 PM 44.1 °F 27.0 °F 51% 29.99 in - North - - N/A   Unknown